[Iaude] MPEC O111: 2024 OM1 [a=2.29,e=0.60,i=5.7,H=24.3]
    mpec at cfa.harvard.edu 
    mpec at cfa.harvard.edu
       
    Wed Jul 31 07:06:16 EDT 2024
    
    
  
M.P.E.C. 2024-O111                                Issued 2024 July 31, 11:04 UT
     The Minor Planet Electronic Circulars contain information on unusual
         minor planets, routine data on comets and natural satellites,
         and occasional editorial announcements.  They are published
    on behalf of Division F of the International Astronomical Union by the
          Minor Planet Center, Smithsonian Astrophysical Observatory,
                          Cambridge, MA 02138, U.S.A.
			  
             Prepared using the Tamkin Foundation Computer Network
                              MPC at CFA.HARVARD.EDU
            URL https://www.minorplanetcenter.net/    ISSN 1523-6714
                                    2024 OM1                                    
Observations:
     K24O01M  C2024 07 06.41150019 30 32.321-37 23 16.69         22.04GVEO111F51
     K24O01M  C2024 07 06.41875719 30 32.338-37 23 19.46         21.34GVEO111F51
     K24O01M  C2024 07 06.42599819 30 32.355-37 23 22.27         22.70GVEO111F51
     K24O01M  C2024 07 06.43325519 30 32.358-37 23 24.63         22.82GVEO111F51
     K24O01M*KB2024 07 29.02830 19 58 03.072-38 36 14.26         18.6 GXEO111L87
     K24O01M KB2024 07 29.03503 19 58 04.613-38 36 11.23         19.9 GXEO111L87
     K24O01M KB2024 07 29.04176 19 58 06.168-38 36 06.98         19.2 GXEO111L87
     K24O01M  C2024 07 29.36939919 59 38.87 -38 33 48.2                WEO111X09
     K24O01M  C2024 07 29.37639919 59 40.81 -38 33 42.9                WEO111X09
     K24O01M KB2024 07 30.77047 20 08 28.865-38 23 46.03         18.8 GXEO111L87
     K24O01M KB2024 07 30.77354 20 08 30.062-38 23 45.85         18.7 GXEO111L87
     K24O01M KB2024 07 30.77648 20 08 31.222-38 23 45.35         18.7 GXEO111L87
     K24O01M  C2024 07 30.87957 20 09 08.66 -38 22 54.0          18.7 GVEO111M28
     K24O01M  C2024 07 30.88158 20 09 09.39 -38 22 52.8          18.7 GVEO111M28
     K24O01M  C2024 07 30.88364 20 09 10.14 -38 22 52.0          18.8 GVEO111M28
Observer details:
F51 Pan-STARRS 1, Haleakala.  Observers J. Herman, T. Lowe, P. Minguez, A.
    Schultz, I. Smith.  Measurers K. Chambers, T. de Boer, J. Fairlamb, H.
    Gao, M. Huber, C.-C. Lin, E. Magnier, Y. Ramanjooloo, R. Wainscoat, R.
    Weryk.  1.8-m Ritchey-Chretien + CCD.
L87 Moonbase South Observatory, Hakos.  Observer G. Duszanowicz.  0.28-m f/1.9
    reflector + CMO.
M28 Lesedi Telescope-SAAO Observatory, Sutherland.  Observers N. Erasmus, S.
    Potter, C. van Gend, S. Chandra, H. Worters.  Measurers T. Ngwane, N.
    Erasmus.  1.0-m f/8 Reflector + CCD.
X09 Deep Random Survey, Rio Hurtado.  Observers A. Schnabel, D. Ruhela.
    Measurer S. Deen.  0.43-m reflector + CMOS.
Orbital elements:
2024 OM1                                                 Earth MOID = 0.0005 AU
Epoch 2024 Oct. 17.0 TT = JDT 2460600.5                 Veres                   
M  10.92467              (2000.0)            P               Q                  
n   0.28437712     Peri.   42.64600     +0.99721397     +0.02684475             
a   2.2901976      Node   315.66924     -0.05602359     +0.88554541             
e   0.6007123      Incl.    5.71581     +0.04925102     +0.46377656             
P   3.47           H   24.36          G   0.15           U   8                  
Residuals in seconds of arc
240706 F51  0.1-  0.0     240729 L87  0.3+  0.2-    240730 L87  0.1+  0.0
240706 F51  0.0   0.0     240729 L87  0.7+  0.3+    240730 L87  0.2+  0.1+
240706 F51  0.1+  0.2-    240729 X09  1.0-  0.4-    240730 M28  0.1+  0.3-
240706 F51  0.0   0.1+    240729 X09  1.4-  0.5-    240730 M28  0.1-  0.1-
240729 L87  0.0   0.4+    240730 L87  0.1+  0.1+    240730 M28  0.3-  0.3-
Ephemeris:
2024 OM1                 a,e,i = 2.29, 0.60, 6                   q = 0.9144
Date    TT    R. A. (2000) Decl.     Delta      r    Elong.  Phase     V
2024 07 01    19 28 47.7 -36 51 13   0.2853  1.2919   162.8    13.5    23.0
...
2024 07 16    19 34 35.4 -38 11 59   0.1601  1.1705   163.1    14.6    21.5
...
2024 07 24    19 43 18.0 -38 38 18   0.09995 1.1103   160.1    18.1    20.5
...
2024 07 30    20 03 15.4 -38 30 31   0.05681 1.0683   158.7    20.2    19.3
2024 07 31    20 09 59.4 -38 21 17   0.04978 1.0617   158.8    20.2    19.0
2024 08 01    20 18 54.0 -38 05 49   0.04280 1.0551   159.1    20.1    18.6
...
2024 08 07    01 27 30.0 +02 37 37   0.0093801.0179   113.3    66.2    16.6
...
2024 08 15    06 28 09.7 +38 38 55   0.05783 0.9755    48.5   128.9    23.7
...
2024 08 30    07 08 38.2 +38 25 21   0.1641  0.9241    54.5   117.2    24.9
M. P. C. Staff               (C) Copyright 2024 MPC           M.P.E.C. 2024-O111
    
    
More information about the Iaude
mailing list